Temp
63 60 57 57 59 61 58 56 58 63 68 62 59 59 63 66 65 67 66 67 69 71 74 73 74 75 74 72 70 70 69 69 69 69 69 70 70 71 72 72 74 75 76 75
60 57 64 67 64 63 60 58 58 63 68 62 59 59 63 64 66 68 68 67 67 69 69 70 72 73 73 72 71 70 70 70 70 70 70 71 71 71 73 73 74 75 76 76
57 63 71 70 62 61 57 57 59 59 63 63 60 56 59 64 66 68 69 69 68 68 67 67 69 71 74 72 71 71 71 70 70 71 70 70 71 72 72 72 74 75 76 77
59 67 68 61 62 62 52 65 66 62 56 50 59 46 55 58 60 64 68 69 69 69 69 70 72 69 72 74 73 72 72 71 71 71 70 70 69 69 71 72 73 74 76 77
61 63 62 61 64 66 61 68 65 62 55 52 54 48 53 55 55 61 66 68 70 71 72 70 72 74 74 73 74 73 71 71 71 71 70 69 69 70 71 71 72 73 74 76
64 68 68 67 70 69 68 63 59 54 51 45 51 52 51 53 57 61 64 68 70 70 72 73 74 74 71 72 74 73 71 71 71 70 70 70 70 69 69 70 72 72 72 74
59 63 67 70 59 62 60 51 42 42 42 43 45 50 55 61 65 66 66 67 70 71 70 69 72 70 70 71 72 73 71 70 70 71 70 70 70 69 70 70 70 71 72 72
52 52 63 69 67 61 56 52 46 40 39 45 49 47 57 65 67 67 69 70 69 69 70 69 70 70 71 73 72 73 71 72 70 71 71 70 71 69 69 70 69 71 72 73
48 53 66 70 69 68 56 52 55 46 41 45 48 55 63 64 64 66 66 66 67 69 69 69 69 70 71 71 71 72 71 73 71 71 71 71 71 70 70 70 70 70 72 74
57 51 62 66 69 64 63 63 52 47 42 40 45 48 51 59 63 65 64 64 65 68 70 70 68 69 70 71 72 71 72 72 71 72 72 73 72 72 71 70 70 70 72 73
57 55 59 61 59 59 58 53 50 50 47 43 42 51 59 61 65 64 66 65 65 67 69 70 69 69 72 72 70 72 71 71 71 71 71 72 72 72 72 71 71 72 73 73
63 54 52 59 63 64 59 56 54 50 46 43 45 53 66 65 66 67 67 67 66 68 70 70 69 68 68 68 69 69 69 70 72 72 71 71 72 72 72 72 72 73 73 73
62 55 49 54 56 59 58 56 51 50 46 43 46 51 66 65 64 66 68 66 65 67 67 68 68 67 67 68 68 69 69 70 72 71 71 71 71 71 71 72 72 73 73 73
68 52 57 55 56 58 55 59 55 54 48 46 48 54 64 67 65 66 67 66 66 66 67 66 66 66 67 68 68 68 69 70 70 71 71 70 70 71 71 72 72 72 73 73
65 55 55 59 62 65 62 62 59 56 53 55 55 56 62 65 65 66 67 67 67 67 67 66 66 66 66 66 66 68 69 70 70 69 69 70 70 70 70 71 71 72 72 73
59 57 55 57 61 62 60 62 61 60 56 56 57 57 63 64 65 66 67 67 67 67 68 69 68 66 66 66 66 67 68 70 70 69 69 69 68 69 70 70 70 71 71 72
55 57 54 50 58 58 52 59 61 61 60 60 56 63 62 62 65 65 65 67 68 68 69 69 69 68 68 68 68 67 67 68 68 68 68 69 69 68 68 70 69 69 69 69
59 56 55 51 55 43 60 65 67 65 66 63 62 64 66 67 68 67 67 67 68 68 69 69 70 70 70 69 69 68 67 67 67 67 68 68 68 68 69 69 69 69 69 68
63 57 49 50 48 54 64 65 65 63 63 67 66 67 66 65 68 66 68 70 70 69 69 70 70 70 69 69 68 68 67 67 67 67 67 68 68 68 68 68 68 68 68 68
62 54 57 50 46 48 59 68 70 69 56 68 67 65 64 67 59 64 68 70 70 71 70 70 70 70 69 69 69 68 67 67 67 69 69 69 69 68 67 67 66 67 67 68
50 48 51 52 50 55 64 70 70 56 59 68 66 64 66 65 67 68 68 69 71 70 70 70 70 70 70 69 69 68 67 67 69 69 69 70 69 68 68 67 66 67 67 68
48 46 47 48 49 47 65 68 61 62 65 69 66 66 67 65 65 66 68 68 68 68 69 69 68 68 68 68 68 67 66 69 69 69 69 69 69 69 69 68 68 68 68 68
47 48 47 51 57 58 61 63 62 63 63 66 66 67 66 66 66 66 65 66 67 68 68 68 67 67 66 66 66 66 67 67 67 67 67 68 67 68 68 68 67 67 67 66
52 53 48 51 53 56 59 62 63 62 60 64 68 67 69 67 66 65 64 65 67 66 66 66 66 66 67 66 65 65 67 68 66 66 66 66 66 66 68 65 64 65 65 64
53 52 52 51 56 58 59 59 60 62 65 66 68 69 68 68 66 67 64 65 66 64 64 64 64 64 65 65 66 66 66 66 66 66 65 65 64 65 65 58 56 58 59 57
53 52 52 50 56 54 56 59 62 61 62 63 64 68 69 71 68 67 66 65 65 63 62 62 63 63 64 64 65 65 66 66 65 65 64 63 62 64 63 59 56 49 49 47
MSLP
1009.17 1010.08 1010.36 1010.90 1011.32 1011.17 1011.22 1011.39 1011.36 1011.06 1010.98 1011.61 1011.97 1012.15 1011.96 1011.91 1012.14 1012.21 1012.49 1012.64 1012.47 1012.31 1012.51 1013.16 1013.74 1014.31 1014.85 1015.52 1016.11 1016.44 1016.83 1017.13 1017.40 1017.60 1017.83 1018.01 1017.88 1017.77 1017.81 1017.75 1017.73 1017.75 1017.74 1018.03
1009.77 1009.63 1009.60 1009.95 1010.57 1010.87 1010.91 1011.07 1011.13 1011.05 1011.10 1011.83 1011.99 1011.83 1011.69 1011.60 1011.51 1011.41 1011.87 1011.95 1012.08 1012.28 1012.66 1013.06 1013.50 1013.94 1014.47 1014.99 1015.63 1016.25 1016.55 1016.96 1017.27 1017.25 1017.35 1017.50 1017.50 1017.59 1017.63 1017.55 1017.75 1017.77 1017.72 1017.96
1009.57 1009.10 1008.96 1009.52 1010.12 1010.58 1010.55 1010.53 1010.61 1011.05 1011.53 1012.14 1012.18 1011.75 1011.11 1010.87 1010.83 1010.82 1011.05 1011.22 1011.59 1011.82 1012.25 1012.86 1013.27 1013.48 1013.91 1014.51 1015.07 1015.61 1016.16 1016.55 1016.88 1017.11 1017.27 1017.53 1017.52 1017.45 1017.73 1017.72 1017.80 1017.72 1017.68 1017.87
1009.36 1008.58 1008.72 1009.03 1009.42 1009.87 1010.00 1009.50 1009.96 1011.06 1011.88 1012.38 1012.36 1012.40 1011.02 1010.61 1010.57 1010.38 1010.33 1010.55 1011.03 1011.56 1011.87 1012.33 1012.65 1013.06 1013.53 1013.80 1014.58 1015.13 1015.59 1016.10 1016.42 1016.83 1017.15 1017.37 1017.38 1017.59 1017.52 1017.52 1017.49 1017.66 1017.67 1017.71
1008.53 1008.17 1008.27 1008.61 1008.36 1009.05 1008.92 1009.03 1009.98 1011.16 1012.11 1012.69 1012.84 1013.07 1010.80 1010.58 1010.36 1009.69 1009.57 1009.92 1010.31 1010.82 1011.17 1011.56 1011.78 1012.15 1012.81 1013.44 1014.05 1014.55 1015.22 1015.66 1016.06 1016.45 1016.65 1017.15 1017.42 1017.34 1017.34 1017.51 1017.59 1017.69 1017.60 1017.60
1008.07 1007.48 1007.29 1006.98 1007.33 1007.75 1008.63 1009.88 1011.03 1012.23 1012.97 1013.42 1012.37 1012.52 1010.37 1009.96 1008.99 1008.50 1008.61 1009.03 1009.36 1009.92 1010.61 1011.00 1011.49 1011.97 1012.47 1013.11 1013.76 1014.33 1014.89 1015.26 1015.71 1016.03 1016.49 1016.75 1017.13 1017.20 1017.36 1017.55 1017.62 1017.66 1017.74 1017.67
1007.88 1007.25 1006.63 1006.35 1006.91 1007.72 1008.69 1010.33 1012.19 1013.39 1013.95 1013.50 1012.37 1012.35 1009.63 1008.37 1007.97 1007.49 1007.48 1008.00 1008.50 1009.22 1010.10 1010.66 1011.11 1011.71 1012.35 1012.82 1013.27 1013.92 1014.43 1015.02 1015.33 1015.64 1016.08 1016.39 1016.77 1016.96 1017.19 1017.33 1017.46 1017.58 1017.71 1017.61
1007.98 1007.10 1006.23 1005.74 1006.09 1006.91 1008.39 1009.46 1011.15 1012.51 1013.61 1013.05 1012.37 1011.21 1008.39 1007.53 1007.11 1006.90 1006.85 1007.42 1008.25 1008.92 1009.56 1010.08 1010.45 1011.20 1011.79 1012.37 1013.03 1013.53 1013.99 1014.47 1014.93 1015.35 1015.61 1015.91 1016.32 1016.62 1016.80 1017.07 1017.30 1017.37 1017.40 1017.19
1007.73 1006.86 1005.55 1005.19 1005.17 1005.98 1008.12 1009.24 1009.72 1011.63 1012.90 1012.77 1011.62 1010.04 1007.92 1007.18 1007.01 1007.14 1007.16 1007.68 1008.09 1008.56 1009.13 1009.69 1010.36 1010.77 1011.39 1011.98 1012.61 1013.13 1013.59 1013.92 1014.34 1014.72 1015.17 1015.52 1015.92 1016.31 1016.42 1016.63 1016.88 1016.97 1017.08 1016.93
1007.03 1007.09 1005.53 1004.76 1005.17 1005.82 1006.53 1007.81 1009.68 1011.17 1012.52 1012.72 1011.55 1010.19 1008.31 1007.21 1007.03 1007.04 1007.40 1007.69 1008.24 1008.54 1009.16 1009.73 1010.30 1010.70 1011.12 1011.60 1012.29 1012.81 1013.27 1013.45 1013.67 1014.31 1014.79 1015.11 1015.35 1015.70 1015.88 1016.32 1016.50 1016.53 1016.62 1016.65
1006.71 1007.08 1006.07 1005.26 1005.20 1005.67 1006.77 1007.69 1009.35 1010.68 1011.65 1012.02 1011.28 1009.51 1006.74 1006.60 1006.54 1006.83 1007.00 1007.38 1007.80 1008.29 1008.87 1009.39 1009.90 1010.39 1010.69 1011.44 1012.22 1012.60 1012.98 1013.30 1013.57 1013.92 1014.28 1014.67 1014.96 1015.19 1015.41 1015.72 1015.95 1016.12 1016.38 1016.43
1005.75 1006.59 1006.51 1005.67 1005.02 1005.19 1005.63 1006.46 1007.91 1010.12 1011.57 1011.74 1010.70 1008.15 1005.95 1006.18 1006.25 1006.38 1006.55 1006.98 1007.49 1008.02 1008.61 1009.11 1009.68 1010.57 1011.11 1011.56 1012.05 1012.32 1012.62 1012.83 1012.96 1013.21 1013.61 1013.93 1014.28 1014.80 1015.12 1015.27 1015.48 1015.62 1015.68 1016.10
1005.37 1005.99 1006.39 1005.68 1005.47 1005.10 1005.38 1006.19 1007.36 1008.67 1009.98 1010.75 1010.28 1007.68 1005.95 1005.94 1006.02 1006.15 1006.57 1006.80 1007.37 1007.92 1008.55 1009.00 1009.68 1010.33 1010.69 1011.13 1011.51 1011.84 1012.07 1012.26 1012.57 1013.05 1013.37 1013.64 1013.85 1014.08 1014.31 1014.59 1014.83 1015.07 1015.24 1015.55
1004.40 1005.44 1005.51 1005.56 1005.00 1004.76 1005.47 1005.88 1006.87 1007.50 1009.24 1009.86 1008.91 1007.33 1005.90 1005.61 1005.71 1006.02 1006.29 1006.79 1007.25 1007.88 1008.42 1008.93 1009.43 1009.90 1010.56 1010.92 1011.28 1011.69 1011.81 1011.86 1012.21 1012.74 1013.13 1013.36 1013.54 1013.63 1013.83 1014.21 1014.55 1014.66 1014.79 1015.08
1004.58 1005.35 1005.14 1004.34 1004.03 1004.08 1004.35 1005.15 1005.94 1006.75 1007.09 1007.68 1007.24 1007.05 1005.59 1005.51 1005.55 1005.77 1006.25 1006.77 1007.32 1007.81 1008.32 1008.66 1009.20 1009.71 1010.21 1010.56 1011.01 1011.39 1011.51 1011.69 1012.07 1012.45 1012.78 1013.02 1013.44 1013.74 1013.95 1014.06 1014.21 1014.32 1014.63 1014.75
1004.77 1004.96 1005.08 1004.67 1004.11 1003.99 1004.08 1004.31 1004.83 1005.62 1006.05 1006.22 1006.13 1006.23 1004.94 1004.94 1005.54 1006.16 1006.46 1006.88 1007.35 1007.68 1008.00 1008.31 1008.84 1009.30 1009.63 1009.94 1010.51 1010.99 1011.31 1011.59 1011.89 1012.16 1012.31 1012.80 1013.31 1013.62 1013.88 1013.99 1013.96 1014.24 1014.22 1014.50
1005.43 1004.91 1005.03 1005.23 1004.62 1004.29 1004.14 1003.63 1003.98 1004.40 1004.68 1004.86 1005.29 1004.57 1004.74 1005.05 1005.35 1005.75 1006.21 1006.58 1006.95 1007.34 1007.62 1008.07 1008.52 1008.84 1009.06 1009.35 1009.87 1010.54 1011.03 1011.41 1011.73 1012.05 1012.27 1012.56 1013.02 1013.37 1013.72 1013.73 1013.98 1013.80 1013.88 1014.27
1005.45 1005.53 1005.08 1005.74 1005.27 1004.68 1003.02 1002.31 1002.60 1002.98 1003.24 1003.77 1003.91 1003.65 1003.84 1003.67 1004.07 1005.07 1005.59 1006.01 1006.49 1007.03 1007.56 1007.97 1008.27 1008.62 1008.85 1009.23 1009.68 1010.19 1010.71 1011.25 1011.65 1012.02 1012.25 1012.46 1012.62 1012.82 1013.04 1013.25 1013.24 1013.51 1013.73 1013.75
1005.19 1005.45 1005.42 1006.63 1006.31 1004.72 1002.90 1002.24 1002.14 1002.50 1002.88 1002.78 1003.14 1003.19 1003.80 1004.16 1004.51 1005.27 1005.46 1005.72 1006.08 1006.72 1007.27 1007.65 1007.90 1008.56 1008.92 1009.43 1009.97 1010.29 1010.78 1011.07 1011.48 1011.80 1011.98 1012.08 1012.39 1012.65 1012.87 1012.95 1013.07 1013.19 1013.30 1013.46
1004.70 1005.25 1004.99 1006.25 1006.20 1005.66 1003.57 1002.05 1001.65 1001.81 1002.43 1002.02 1002.54 1003.33 1003.58 1003.95 1005.21 1004.57 1004.93 1005.50 1006.19 1006.72 1007.22 1007.69 1008.11 1008.74 1009.22 1009.60 1009.94 1010.47 1010.90 1011.20 1011.36 1011.36 1011.41 1011.68 1011.99 1012.27 1012.50 1012.59 1012.73 1012.77 1012.80 1012.82
1005.25 1005.71 1005.39 1005.65 1005.10 1004.88 1003.14 1002.11 1002.08 1002.61 1002.65 1001.77 1002.17 1002.76 1003.40 1003.24 1003.27 1003.26 1004.29 1005.46 1005.88 1006.56 1007.30 1007.94 1008.46 1008.64 1009.01 1009.56 1009.92 1010.43 1010.86 1010.96 1010.80 1011.11 1011.40 1011.56 1011.78 1012.05 1012.20 1012.26 1012.33 1012.38 1012.45 1012.52
1005.93 1006.11 1006.02 1005.63 1005.27 1005.38 1003.95 1002.86 1003.07 1003.04 1001.93 1001.56 1001.97 1002.61 1002.84 1002.79 1003.29 1003.76 1004.28 1005.09 1005.82 1006.71 1007.46 1008.11 1008.72 1009.09 1009.39 1009.67 1010.01 1010.47 1010.59 1010.41 1010.83 1011.00 1011.24 1011.48 1011.69 1011.88 1012.04 1012.11 1011.98 1012.02 1012.13 1012.22
1007.21 1006.66 1006.11 1005.62 1004.53 1003.95 1004.21 1004.23 1003.99 1003.75 1003.04 1002.22 1001.95 1001.83 1002.60 1003.13 1003.58 1004.11 1004.70 1005.40 1006.06 1006.66 1007.57 1008.36 1008.60 1009.03 1009.27 1009.63 1010.03 1010.36 1010.23 1010.54 1010.73 1011.03 1011.33 1011.56 1011.65 1011.86 1011.95 1011.97 1011.97 1012.04 1012.04 1012.17
1007.73 1007.29 1006.70 1005.89 1005.40 1005.15 1004.65 1004.31 1004.55 1004.05 1003.68 1002.72 1002.04 1002.06 1001.91 1002.75 1003.50 1004.16 1004.88 1005.74 1006.42 1007.18 1007.83 1008.26 1008.68 1009.08 1009.36 1009.56 1009.84 1009.98 1010.24 1010.31 1010.68 1011.11 1011.38 1011.61 1011.66 1011.77 1011.84 1012.06 1012.14 1012.07 1011.96 1012.10
1008.79 1008.05 1007.11 1006.18 1005.84 1005.34 1005.18 1005.13 1004.95 1004.41 1003.52 1003.02 1002.26 1002.16 1001.86 1002.51 1003.54 1003.97 1005.10 1005.97 1006.65 1007.31 1007.96 1008.46 1008.96 1009.31 1009.51 1009.59 1009.72 1009.93 1010.11 1010.37 1010.80 1011.06 1011.25 1011.40 1011.51 1011.77 1011.92 1012.32 1012.67 1012.65 1012.50 1012.53
1008.60 1007.94 1007.35 1006.81 1006.22 1005.92 1005.64 1005.10 1004.71 1004.27 1003.99 1003.56 1002.92 1002.63 1002.29 1002.27 1003.15 1004.11 1005.18 1005.84 1006.67 1007.44 1008.07 1008.72 1009.16 1009.51 1009.56 1009.71 1009.94 1010.11 1010.29 1010.51 1010.86 1011.17 1011.41 1011.62 1011.75 1011.76 1011.82 1012.16 1012.66 1012.77 1012.70 1012.71
Wind_Speed
2 4 10 8 7 4 2 3 4 2 5 6 9 6 10 8 7 8 8 7 9 15 8 8 9 9 8 8 7 7 6 5 4 2 2 0 2 1 1 3 4 3 3 3
6 8 4 7 6 5 4 4 3 2 1 3 3 12 7 8 12 14 11 8 9 5 8 8 9 10 11 10 10 7 7 6 4 3 2 2 2 2 1 2 2 4 4 4
8 6 6 6 4 4 4 6 5 3 4 1 3 7 6 6 6 10 9 7 7 12 10 8 10 12 11 10 11 11 9 8 6 5 3 2 1 2 2 1 2 3 4 3
6 6 7 3 5 7 7 9 7 10 4 2 2 6 7 5 7 10 12 12 10 10 9 10 13 10 12 11 8 8 9 8 7 8 4 4 4 3 3 3 2 3 3 3
10 5 5 5 9 9 11 7 8 4 4 3 2 2 8 2 6 14 14 13 12 12 14 14 16 15 12 10 11 10 8 7 6 7 6 5 4 2 2 1 3 3 2 3
8 2 5 9 5 10 6 8 9 6 3 2 2 6 9 5 7 6 7 15 15 13 12 12 12 9 9 7 9 9 10 9 8 8 7 7 7 5 3 2 3 3 2 2
3 5 5 4 2 3 6 7 4 4 2 7 1 4 12 4 7 9 11 14 16 14 12 10 13 11 11 12 11 10 11 9 10 10 8 8 7 7 6 5 4 4 2 3
6 7 7 5 9 10 7 8 8 6 5 5 3 6 8 1 5 5 6 10 10 12 12 13 13 12 13 12 11 11 10 10 10 10 10 7 6 4 4 5 4 4 3 4
5 7 4 6 5 10 4 3 5 8 3 2 3 8 9 3 2 3 5 8 12 13 13 14 11 11 11 9 10 11 10 10 10 12 8 8 6 6 6 7 5 4 4 4
6 4 5 2 5 3 8 8 4 3 4 3 5 6 7 3 5 4 5 8 7 7 8 9 9 10 9 6 6 7 6 9 7 8 8 7 8 7 6 5 6 5 4 5
7 4 6 2 4 10 3 2 6 6 4 6 1 7 8 7 6 7 8 8 9 10 11 10 10 10 10 9 6 7 8 7 7 7 6 7 8 8 6 6 6 6 4 5
9 6 5 12 4 3 3 6 7 7 5 1 3 8 1 4 5 6 9 7 6 8 10 10 10 8 6 7 8 8 7 8 8 8 7 8 7 6 6 7 7 6 6 5
8 4 3 12 6 3 4 4 6 7 4 6 7 8 2 1 4 6 7 6 6 6 8 7 8 10 10 10 9 9 9 9 7 6 7 7 7 8 9 9 8 7 7 6
9 3 9 11 11 6 4 6 4 7 5 6 7 5 6 4 5 4 4 5 6 6 7 6 6 7 7 9 8 8 8 6 6 5 5 5 6 5 6 6 5 6 7 7
6 7 6 8 6 5 7 9 9 6 7 7 5 9 8 7 7 7 5 6 6 5 6 7 6 6 6 7 8 7 7 6 6 7 7 6 4 5 4 5 5 6 6 8
3 4 5 4 4 7 6 9 9 3 4 2 4 7 7 5 7 5 7 7 5 5 6 6 5 6 7 8 7 7 7 7 6 6 7 4 5 3 4 4 2 3 3 4
0 5 1 3 4 4 1 11 11 6 5 8 6 11 6 4 8 9 9 8 8 7 7 7 7 6 6 6 6 7 6 5 5 4 4 4 4 5 5 4 5 3 2 2
4 3 4 3 3 2 7 2 7 9 8 7 3 6 12 9 8 7 6 9 9 8 7 7 6 4 4 4 4 5 5 5 5 4 4 4 4 4 4 5 4 4 4 6
11 3 3 6 3 6 8 5 8 8 8 9 8 4 5 5 6 0 7 7 9 7 7 5 6 4 4 6 5 5 4 4 4 5 5 4 4 4 4 5 5 6 5 7
6 5 8 5 7 13 9 3 1 4 3 6 7 6 12 8 6 7 11 8 7 7 6 8 7 5 5 5 6 6 6 5 5 5 5 3 3 4 4 5 5 4 4 6
4 2 9 5 5 6 8 5 4 7 10 6 7 7 11 8 8 5 12 8 8 7 9 7 6 7 7 6 6 6 6 7 6 4 3 3 3 4 4 4 3 3 5 6
5 7 5 4 4 11 5 3 6 6 6 2 8 9 10 3 6 7 11 12 12 12 10 8 6 6 5 5 5 4 6 1 3 3 3 2 2 2 2 4 4 4 3 4
3 4 3 6 7 3 3 2 4 5 4 6 4 8 9 7 6 8 9 10 10 13 10 6 7 7 3 4 5 6 5 5 4 4 3 2 2 2 2 3 3 3 1 1
4 2 2 4 2 2 4 3 7 6 7 11 4 6 14 9 9 8 10 11 11 9 8 5 6 4 2 0 4 5 3 4 6 5 4 3 2 3 2 2 3 3 2 1
3 8 4 3 4 1 4 3 5 9 10 11 2 3 9 13 8 13 10 10 10 8 6 6 7 5 4 1 1 1 3 4 4 3 1 2 2 3 2 1 2 3 2 2
4 4 2 4 3 2 5 7 7 9 8 10 7 2 7 11 15 10 12 10 11 10 7 6 6 6 5 4 2 3 3 4 3 1 1 1 2 3 2 2 2 3 4 5
Wind_Direction
19 100 224 183 192 198 218 203 238 253 181 167 211 232 221 224 215 226 218 227 223 210 194 163 168 169 167 156 170 204 179 201 162 151 146 178 234 260 223 208 197 192 188 175
31 228 153 165 176 216 243 234 227 340 355 178 219 250 221 190 215 220 223 218 202 190 171 170 166 175 180 176 174 184 199 176 184 169 161 164 174 165 179 165 190 177 200 190
172 251 142 158 163 180 243 217 178 155 101 284 291 281 220 211 204 198 208 218 191 190 182 176 175 185 186 178 179 183 190 190 177 179 124 95 63 79 94 134 182 199 206 193
230 257 248 157 222 148 253 208 228 132 113 247 31 281 295 216 222 221 209 207 195 197 188 181 188 184 191 193 174 180 178 193 181 167 166 165 166 169 199 175 174 164 182 203
239 185 150 193 217 164 242 189 193 123 96 43 163 57 266 94 245 229 219 206 200 193 192 187 193 194 195 167 185 179 181 183 185 177 177 166 179 189 146 159 182 176 190 212
227 238 166 217 165 184 82 76 46 53 68 348 200 153 282 204 205 243 192 203 196 194 191 196 198 177 179 167 173 177 180 190 186 176 186 188 186 180 159 174 203 214 196 222
269 224 239 167 154 89 93 72 24 16 26 226 206 117 248 251 244 231 203 195 194 187 181 179 179 172 175 178 176 180 180 196 190 182 182 193 193 183 196 190 200 193 195 219
185 303 185 188 186 179 176 154 152 188 193 244 130 239 253 280 314 259 200 191 174 180 180 185 182 178 182 178 173 181 186 194 180 189 192 193 191 185 195 197 201 223 209 224
166 279 257 204 151 133 215 168 192 102 355 52 244 289 297 128 28 139 156 151 178 184 184 187 179 175 174 170 176 184 187 199 184 194 193 191 187 194 196 204 194 210 235 246
209 281 227 242 119 43 160 157 82 10 140 224 294 280 243 263 218 144 171 175 185 190 177 175 179 177 179 175 162 174 189 203 186 184 189 200 195 200 194 182 215 209 236 237
143 138 286 360 186 179 143 152 59 111 121 156 236 271 220 202 199 197 226 176 180 178 182 178 183 179 193 177 170 187 178 178 182 188 185 192 196 202 192 198 206 202 212 225
201 155 236 229 221 216 205 155 134 126 220 100 155 270 158 211 208 208 242 167 185 172 175 181 179 162 174 180 177 182 180 188 195 190 185 198 184 183 196 207 216 210 200 212
184 216 281 317 354 26 202 165 118 106 91 189 138 261 112 103 127 201 226 165 176 161 151 166 157 177 186 181 182 184 188 198 192 177 189 197 197 187 206 209 212 206 207 214
121 146 175 219 214 153 186 158 152 123 126 169 222 260 284 195 158 185 192 152 160 169 163 173 182 181 174 185 178 177 193 191 175 178 180 189 208 208 198 204 202 211 213 215
143 205 184 245 231 171 182 174 168 171 164 152 228 206 238 238 196 190 182 141 152 180 187 187 194 180 170 177 179 190 202 196 178 183 192 204 166 194 219 221 203 204 219 231
191 225 166 278 205 193 185 190 157 149 133 131 140 251 196 170 106 139 168 156 176 204 209 194 185 181 184 184 180 184 190 193 180 197 212 157 165 195 230 220 234 251 220 240
194 157 147 260 319 139 28 188 181 176 169 148 159 225 168 156 171 182 174 176 184 197 203 181 185 188 186 191 173 179 168 151 179 198 204 199 188 190 197 198 206 215 247 233
274 305 85 25 348 271 245 118 181 178 187 200 247 199 198 192 167 147 176 174 188 181 181 181 168 178 157 136 152 135 142 160 170 190 200 202 215 233 218 212 218 211 211 222
201 202 81 159 307 295 308 171 154 163 238 199 217 188 127 111 76 218 189 186 185 177 175 177 142 145 139 128 124 120 132 148 173 206 215 210 204 224 219 227 227 229 218 225
152 207 138 143 141 246 245 295 161 96 276 225 171 195 147 131 138 229 177 161 153 154 146 152 146 126 139 150 140 142 155 161 194 209 222 191 195 231 230 230 242 229 225 240
135 285 175 170 129 281 247 221 107 113 231 188 170 168 172 159 189 164 143 153 159 150 143 133 150 162 172 158 153 176 161 200 204 180 175 220 215 231 255 275 225 239 232 244
178 167 178 114 148 231 3 37 165 247 307 213 147 176 200 102 123 143 145 149 149 140 136 143 143 159 163 158 154 174 212 184 171 179 190 203 264 286 275 259 279 275 271 277
301 190 216 197 194 141 256 253 353 341 260 287 189 163 158 145 160 150 142 139 141 138 134 149 152 161 136 157 180 194 232 159 150 147 173 221 282 273 291 279 259 257 253 298
309 314 283 23 315 19 23 35 8 2 296 286 258 185 161 161 153 126 125 129 131 134 144 135 131 123 179 165 184 220 179 171 158 171 183 183 236 276 226 314 318 279 253 265
240 327 305 291 285 255 195 75 339 329 347 348 327 224 153 138 144 138 130 138 140 135 127 133 141 155 197 216 302 92 154 142 143 140 114 313 297 270 252 109 325 318 357 337
181 259 324 267 283 125 266 309 336 344 336 327 348 309 157 152 154 139 146 148 147 142 138 139 154 170 183 188 166 129 131 143 145 196 250 282 303 274 224 203 210 218 247 304